{"data":{"norad_id":49179,"epoch":"2026-05-25T03:41:16.122912Z","epoch_age_seconds":61968,"freshness":"FRESH","line1":"1 49179U 21082BB  26145.15365883  .00000229  00000+0  26982-4 0  9993","line2":"2 49179  70.0007  61.6552 0002561 269.5663  90.5203 14.98332384258416","mean_motion":14.98332384,"eccentricity":0.0002561,"inclination_deg":70.0007,"raan_deg":61.6552,"arg_perigee_deg":269.5663,"mean_anomaly_deg":90.5203,"bstar":2.6982e-5,"rev_number":25841,"period_min":96.106846209632,"perigee_km":570.26857611953,"apogee_km":573.82846114217,"semimajor_km":6950.1855186308,"source":"CELESTRAK","updated_at":"2026-05-25T13:38:16.793620Z"}}